Retour au catalogue

GOES 10

ActifMétéoGEO
NORAD 24786·PAYLOAD·🇺🇸 United States

Lancé Apr 25, 1997 depuis Cape Canaveral Space Force Station

Loading…

TLE

FraisSource: Space-Track

Époque: Sep 14, 2026, 13:51 UTC

1 24786U 97019A   26257.57770103 -.00000116  00000-0  00000-0 0  9994
2 24786  13.2317  20.4170 0030846 239.2644 315.3936  0.99126785106959

Suivez GOES 10 en temps réel avec AllMySat

Download on the App Store